Klamath Falls, OR

1:15 PM PDT on May 26, 2017 (GMT -0700)
Klamath Falls International

Weather History for KLMT - April, 2014

Change the Weather History Date:

Sunday, April 27, 2014

  Actual Average Record
Temperature  
Mean Temperature 40 °F 46 °F  
Max Temperature 52 °F 60 °F 85 °F (1987)
Min Temperature 28 °F 32 °F 19 °F (1955)
Degree Days  
Heating Degree Days 25 19  
Month to date heating degree days 543 602  
Since 1 July heating degree days 6040 6264  
Cooling Degree Days 0 0  
Month to date cooling degree days 0 0  
Year to date cooling degree days 0 0  
Moisture  
Dew Point 30 °F    
Average Humidity 67    
Maximum Humidity 85    
Minimum Humidity 33    
Precipitation  
Precipitation 0.01 in 0.06 in 0.56 in (2005)
Month to date precipitation 0.20 1.19  
Year to date precipitation 4.79 6.23  
Sea Level Pressure  
Sea Level Pressure 29.93 in    
Wind  
Wind Speed 12 mph (West)    
Max Wind Speed 24 mph    
Max Gust Speed 33 mph    
Visibility 10 miles    
Events Rain    
T = Trace of Precipitation, MM = Missing Value Source: NWS Daily Summary

Daily Weather History Graph

Daily Weather History Graph

Search for Another Location

Airport or City:

Trip Planner

Search our weather history database for the weather conditions in past years. The results will help you decide how hot, cold, wet, or windy it might be!

Date:

Astronomy

Apr. 27, 2014 Rise Set
Actual Time 6:07 AM PDT 8:01 PM PDT
Civil Twilight 5:37 AM PDT 8:32 PM PDT
Nautical Twilight 5:01 AM PDT 9:08 PM PDT
Astronomical Twilight 4:21 AM PDT 9:48 PM PDT
Moon 5:13 AM PDT (4/27) 6:40 PM PDT (4/27)
Length of Visible Light 14h 54m
Length of Day
13h 53m
Waning Crescent, 3% of the Moon is Illuminated
Apr 27
Waning Crescent
Apr 28
New
May 6
First Quarter
May 14
Full
May 21
Last Quarter

Hourly Weather History & Observations

Time (PDT) Temp. Windchill Dew Point Humidity Pressure Visibility Wind Dir Wind Speed Gust Speed Precip Events Conditions
12:53 AM 37.9 °F - 33.1 °F 83% 29.83 in 10.0 mi Calm Calm - N/A   Overcast
2:53 AM 37.0 °F - 34.0 °F 89% 29.81 in 10.0 mi Calm Calm - 0.00 in   Overcast
3:53 AM 37.0 °F - 35.1 °F 93% 29.82 in 10.0 mi Calm Calm - 0.00 in Rain Light Rain
4:02 AM 37.0 °F 34.5 °F 35.1 °F 93% 29.83 in 10.0 mi North 3.5 mph - 0.00 in   Overcast
4:53 AM 37.9 °F 31.5 °F 34.0 °F 86% 29.83 in 10.0 mi West 9.2 mph - 0.01 in   Overcast
5:12 AM 37.9 °F 31.5 °F 34.0 °F 86% 29.85 in 10.0 mi West 9.2 mph - 0.00 in Rain Light Rain
5:53 AM 37.0 °F 29.8 °F 34.0 °F 89% 29.85 in 10.0 mi WSW 10.4 mph - 0.00 in   Mostly Cloudy
6:16 AM 37.9 °F 32.1 °F 33.1 °F 83% 29.86 in 10.0 mi West 8.1 mph - N/A   Mostly Cloudy
6:53 AM 37.9 °F 30.9 °F 34.0 °F 86% 29.87 in 10.0 mi WSW 10.4 mph - N/A   Overcast
7:10 AM 37.9 °F 30.0 °F 34.0 °F 86% 29.88 in 10.0 mi West 12.7 mph - N/A   Scattered Clouds
7:53 AM 39.0 °F 31.8 °F 34.0 °F 82% 29.89 in 10.0 mi West 11.5 mph - N/A   Scattered Clouds
9:53 AM 42.1 °F 33.1 °F 30.9 °F 65% 29.93 in 10.0 mi West 20.7 mph - N/A   Clear
10:53 AM 45.0 °F 37.9 °F 28.0 °F 52% 29.95 in 10.0 mi West 16.1 mph 24.2 mph N/A   Scattered Clouds
11:53 AM 45.0 °F 37.9 °F 28.0 °F 52% 29.96 in 10.0 mi WNW 16.1 mph 25.3 mph N/A   Scattered Clouds
1:53 PM 50.0 °F - 24.1 °F 36% 29.94 in 10.0 mi WSW 19.6 mph 24.2 mph N/A   Mostly Cloudy
2:53 PM 50.0 °F - 23.0 °F 35% 29.94 in 10.0 mi West 20.7 mph 28.8 mph N/A   Scattered Clouds
3:53 PM 51.1 °F - 24.1 °F 35% 29.96 in 10.0 mi West 18.4 mph 26.5 mph N/A   Scattered Clouds
4:53 PM 48.9 °F - 21.9 °F 35% 29.96 in 10.0 mi WNW 17.3 mph - N/A   Clear
5:53 PM 48.0 °F - 21.0 °F 34% 29.99 in 10.0 mi WNW 17.3 mph - N/A   Clear
6:53 PM 45.0 °F 38.2 °F 25.0 °F 46% 30.01 in 10.0 mi West 15.0 mph - N/A   Partly Cloudy
7:53 PM 42.1 °F 35.7 °F 30.0 °F 62% 30.05 in 10.0 mi NW 11.5 mph - N/A   Mostly Cloudy
8:53 PM 39.0 °F 35.7 °F 28.9 °F 67% 30.07 in 10.0 mi West 4.6 mph - N/A   Partly Cloudy
9:53 PM 39.0 °F 31.8 °F 28.9 °F 67% 30.10 in 10.0 mi WNW 11.5 mph - N/A   Mostly Cloudy
11:53 PM 33.1 °F 27.7 °F 27.0 °F 78% 30.13 in 10.0 mi North 5.8 mph - N/A   Clear